GFSWCAN_con_3kmhel_021.txt.gz
Helicity
118 114 122 119 112 100 97 93 85 84 86 93 105 122 142 151 154 96 85 99 74 85 112 167 219 232 173 191 140 94 190 154 163 153 123 106 116 110 153 138 115 143 168 152 193 176 112 81 189 241 177 245 278 297
87 107 114 119 114 104 105 97 93 93 94 95 104 123 147 158 166 114 100 103 94 77 64 94 140 211 213 187 130 112 87 90 111 134 132 123 137 137 155 157 160 195 156 146 188 143 101 131 166 258 294 298 309 267
104 85 98 112 113 106 109 104 101 99 102 109 115 130 149 169 200 134 98 120 99 87 111 111 124 146 177 251 204 144 139 88 141 118 120 118 116 122 139 129 179 160 183 218 245 152 136 249 331 358 367 357 313 239
231 120 97 107 113 112 110 112 117 114 113 116 124 142 162 181 217 153 96 137 103 95 102 102 84 111 140 197 186 154 124 197 208 170 141 130 123 109 138 141 200 137 212 221 237 236 227 378 375 395 365 314 245 145
350 293 213 135 127 122 119 121 122 121 123 128 140 156 181 190 195 132 104 130 118 96 60 83 108 96 118 158 140 160 172 187 191 195 183 137 146 177 206 236 228 174 176 204 188 148 233 305 292 278 282 213 130 187
360 340 331 246 182 137 125 135 132 128 135 137 148 169 199 214 194 120 114 137 172 135 117 114 95 106 134 156 142 140 152 164 169 165 143 149 167 177 199 231 189 148 103 126 192 285 299 290 251 203 174 149 232 249
251 369 296 286 227 178 132 120 118 124 141 148 159 178 202 230 166 162 110 113 186 153 129 118 97 142 135 179 203 220 212 188 188 170 162 170 166 204 235 253 222 171 146 235 281 328 296 210 176 133 176 241 246 299
94 197 301 270 230 215 189 143 106 109 109 110 131 155 172 162 151 170 157 130 146 156 159 153 137 146 166 204 208 231 212 211 200 203 245 199 221 266 258 232 166 137 163 308 334 313 212 181 234 218 244 335 304 232
58 65 114 119 129 220 216 147 122 104 97 96 109 133 142 165 168 148 167 155 138 149 156 197 193 138 176 208 205 196 201 166 190 230 237 231 237 262 203 154 152 161 267 345 274 199 198 187 202 339 323 275 216 184
60 63 66 63 59 64 142 175 149 122 101 99 143 133 132 129 157 151 130 153 181 200 234 211 225 233 212 187 181 177 187 187 197 180 206 236 264 254 205 238 266 272 319 245 217 277 292 343 318 287 233 189 168 136
69 67 67 56 73 57 45 70 104 145 235 207 183 158 137 159 167 185 161 167 178 221 203 241 295 315 279 262 244 209 214 216 187 148 208 212 241 132 136 228 313 294 254 295 387 373 367 317 244 193 174 141 121 110
98 91 83 52 61 67 48 65 80 116 155 180 169 209 219 240 167 143 192 234 217 195 314 287 309 394 425 369 310 236 256 232 195 252 303 298 224 258 305 297 344 382 392 390 382 348 270 214 168 148 126 108 96 87
105 105 88 46 56 81 108 103 94 73 112 161 154 162 176 190 211 241 261 330 328 372 310 295 312 273 300 303 293 292 277 307 333 350 371 351 268 255 241 347 315 292 330 290 229 198 178 132 121 105 71 68 86 86
72 76 75 64 40 62 100 125 95 64 87 128 138 169 165 150 229 280 267 251 268 217 186 211 254 199 262 278 277 299 369 402 389 424 384 312 307 221 202 196 214 190 153 144 128 104 103 104 81 67 64 77 94 89
39 39 45 66 46 48 50 52 82 60 97 122 131 167 144 148 159 137 131 149 178 160 176 204 242 234 257 263 305 329 341 400 395 404 381 247 93 159 177 183 163 144 112 96 92 97 94 76 64 64 74 76 88 107
40 29 36 26 38 42 34 40 42 47 93 117 131 133 82 105 109 98 99 105 92 107 154 181 227 230 293 334 356 414 441 491 373 198 36 34 62 95 126 122 123 118 113 107 104 85 66 71 76 78 92 95 110 128
41 23 13 22 25 33 41 24 70 73 67 86 118 105 88 89 65 78 68 77 83 127 174 183 225 250 232 291 334 269 318 177 28 -7 -3 21 46 67 98 142 145 119 88 64 74 76 77 80 94 106 84 83 114 113
48 16 16 14 45 44 34 50 55 68 75 60 63 46 44 58 60 60 63 86 93 98 110 129 112 163 167 174 151 97 36 22 46 41 47 58 84 109 116 103 83 75 77 71 68 72 82 88 87 122 128 121 126 105
52 26 27 63 64 52 67 68 62 86 78 44 45 50 47 49 56 48 39 46 43 43 75 95 95 85 81 66 55 36 50 48 46 47 64 69 79 74 66 66 70 67 62 62 76 88 97 103 135 149 160 162 159 152
88 72 80 71 74 73 88 75 68 84 73 63 63 82 75 61 44 34 38 45 44 47 60 61 66 67 60 61 64 74 64 75 89 102 90 85 81 80 59 58 63 62 70 71 81 95 114 130 140 141 130 129 120 118
71 56 69 75 106 88 93 79 97 93 81 94 77 84 87 58 54 56 60 59 53 44 55 35 45 39 65 72 87 97 112 115 101 85 67 82 87 85 80 76 74 78 89 104 117 125 128 140 125 116 122 115 116 145
52 60 54 55 85 106 100 98 89 92 106 75 88 70 61 54 56 61 57 56 40 43 53 67 73 89 95 98 86 80 98 119 112 106 108 106 97 96 91 82 87 83 103 120 127 127 136 126 135 126 117 103 96 130
48 50 35 49 71 78 85 153 119 89 94 79 90 90 74 76 72 63 59 45 51 81 88 105 106 98 115 111 116 195 196 154 171 186 164 124 98 92 90 92 112 123 116 101 115 140 138 130 132 133 117 112 107 107
45 22 15 38 96 89 139 126 122 128 113 85 76 77 88 76 69 76 72 85 158 150 160 182 145 133 126 240 297 272 229 157 131 113 93 58 54 65 68 72 86 104 138 130 110 105 96 105 145 164 119 93 90 114
15 -12 36 64 84 98 109 128 145 146 134 112 120 105 80 69 64 63 74 120 124 174 164 219 283 279 323 272 194 142 133 97 82 69 66 80 83 101 105 103 111 139 124 102 95 90 97 111 152 125 71 79 105 99
12 29 35 46 81 104 100 156 144 147 136 132 123 113 80 85 80 60 130 122 118 125 123 166 203 173 186 166 139 126 95 85 74 64 81 157 154 159 130 118 103 93 95 96 88 86 84 85 85 76 76 84 81 97
38 27 56 82 90 111 136 155 199 167 140 119 72 64 70 61 59 118 114 140 115 110 87 109 142 166 166 160 141 135 122 102 119 109 115 156 191 146 126 121 113 94 99 100 103 106 100 97 110 94 89 88 95 127
50 63 63 70 72 67 66 74 60 45 56 77 105 92 99 111 113 112 109 110 129 139 149 161 167 165 159 140 139 134 127 146 153 161 185 239 151 118 141 140 134 156 132 127 131 125 125 128 137 114 93 93 106 165
33 8 9 22 31 40 45 51 55 76 86 80 87 102 119 129 120 121 126 136 152 184 194 185 185 181 188 203 195 142 131 117 143 152 144 113 116 126 110 101 104 103 101 103 122 134 132 144 111 100 99 159 179 187
16 26 37 42 52 53 58 69 66 71 94 102 100 119 133 132 162 191 162 163 182 192 195 193 170 174 179 181 170 164 97 56 49 71 74 76 78 68 55 49 57 70 77 85 94 109 120 129 117 151 145 131 134 120
18 31 49 59 57 55 58 61 67 82 105 123 141 173 163 144 142 153 193 190 163 190 201 191 169 152 168 167 136 105 84 83 97 84 67 59 62 52 42 48 56 65 78 100 111 111 122 89 81 99 111 110 108 88
44 60 55 59 63 67 75 88 94 95 101 108 132 154 135 141 159 136 130 147 134 147 146 144 157 141 103 74 89 99 136 88 59 62 57 55 54 53 51 62 72 82 95 119 127 131 126 70 74 87 83 92 88 91
37 37 44 50 52 45 55 55 43 65 88 110 170 177 170 151 146 119 94 105 107 114 122 106 83 78 77 92 93 92 65 56 76 78 75 79 64 58 77 84 82 80 93 128 131 108 89 65 63 70 76 77 74 73

GFSWCAN_con_3kmhel_024.txt.gz
Helicity
95 94 111 130 128 109 100 98 90 93 108 125 136 145 161 175 168 106 118 105 70 90 135 147 158 159 170 163 156 128 180 140 151 154 134 113 120 119 150 136 100 116 146 149 213 214 140 145 241 246 145 177 186 223
99 116 135 129 125 109 101 100 90 88 97 117 134 150 169 172 160 94 112 119 91 92 86 113 174 190 144 99 124 105 102 87 103 145 130 122 132 132 159 150 164 155 150 127 157 121 149 114 167 183 218 242 225 252
124 118 122 120 121 109 104 103 97 89 93 104 128 156 185 198 176 84 97 112 95 96 123 122 171 210 201 179 99 133 120 95 108 110 99 112 123 134 131 108 150 119 201 177 213 140 129 148 242 280 289 288 299 280
113 113 116 124 121 112 108 108 105 99 101 108 123 155 186 205 203 92 97 107 85 89 107 108 112 148 176 185 147 124 132 203 174 150 143 132 131 95 118 129 144 101 173 172 223 222 263 296 267 303 362 325 278 286
148 118 120 123 121 118 112 109 112 112 110 113 128 152 180 188 177 114 104 131 94 79 61 101 109 134 152 159 148 157 187 179 173 174 165 119 117 148 165 198 187 178 174 211 191 138 188 182 232 257 261 209 230 271
289 188 142 138 146 138 131 123 123 112 115 123 135 155 178 177 110 106 103 113 143 95 98 104 82 106 170 186 200 189 187 177 184 155 145 138 159 168 159 190 119 121 122 150 131 148 180 221 215 204 220 218 250 337
348 306 235 170 155 145 143 140 130 114 118 127 145 169 187 169 121 116 88 91 156 118 106 111 104 139 152 179 187 187 190 170 170 161 175 169 190 213 223 217 198 155 127 177 244 339 337 250 201 200 226 302 351 351
328 322 298 236 171 136 132 135 136 131 133 140 159 178 176 157 139 167 185 186 169 138 146 133 128 131 152 161 164 174 174 180 180 174 199 165 200 249 204 177 144 126 154 272 255 266 203 230 289 335 348 367 347 267
288 478 382 293 224 154 118 109 110 113 119 139 179 187 185 188 165 156 208 206 151 152 157 172 160 107 155 169 164 151 160 151 183 209 229 226 221 237 180 147 154 125 172 241 337 317 286 328 390 326 376 284 262 209
81 175 314 256 204 176 120 114 102 92 107 151 176 177 168 162 154 164 149 154 180 208 221 193 205 186 163 154 169 164 168 163 178 165 189 229 260 236 183 157 169 142 174 337 413 407 470 372 274 260 228 240 188 150
78 61 50 105 114 141 188 154 130 171 185 172 169 163 125 164 142 154 157 163 165 185 181 214 218 230 209 211 194 165 172 182 160 146 214 228 258 170 182 188 252 267 296 301 337 411 329 323 226 214 218 161 125 113
92 76 76 81 93 112 88 113 192 235 209 166 123 126 147 165 165 145 152 181 180 157 250 221 212 240 260 250 226 195 251 260 209 244 280 260 223 233 296 343 384 410 469 510 447 363 242 269 227 144 126 94 105 98
116 84 84 112 131 132 124 126 124 79 132 203 222 187 150 166 134 132 172 216 229 272 242 205 177 170 189 201 217 225 229 279 309 281 299 289 244 286 322 331 362 287 281 232 205 139 108 108 116 84 82 93 92 75
120 114 86 96 125 135 125 95 81 104 126 129 153 192 198 176 210 236 229 212 195 164 133 138 149 127 135 144 172 206 233 293 293 326 318 301 292 265 216 196 231 203 162 135 127 124 108 75 64 80 83 85 84 77
111 102 84 118 98 98 101 103 87 50 96 126 141 167 196 162 153 114 113 135 158 140 135 147 166 168 193 153 172 214 254 326 350 432 412 293 223 165 152 137 100 98 93 88 69 68 70 82 84 69 65 69 80 93
74 67 95 105 96 91 87 65 74 66 104 119 129 129 118 136 137 112 106 110 93 101 116 128 147 152 190 242 245 298 334 442 400 292 156 100 76 68 87 59 81 93 90 73 69 70 68 69 69 67 78 85 87 103
44 25 53 77 112 81 76 48 65 87 85 112 141 145 119 133 113 106 91 102 88 99 133 153 202 209 197 229 271 287 331 238 138 44 -16 -12 6 24 40 56 51 55 57 61 68 70 67 67 81 95 89 96 115 128
39 45 51 78 89 56 50 57 51 51 71 68 81 87 95 105 100 117 97 95 94 95 107 128 97 157 166 180 184 120 59 12 -14 -15 -33 -17 11 29 49 71 78 70 54 47 48 57 71 86 87 102 105 127 140 140
29 38 50 72 78 42 41 55 57 64 69 72 77 75 60 62 66 48 51 61 65 58 62 76 104 111 108 92 86 50 27 15 17 34 66 85 92 93 81 68 61 71 73 76 87 95 96 85 97 110 130 146 146 144
45 72 76 62 71 62 71 60 65 68 70 47 64 75 76 67 59 65 62 56 52 60 78 80 72 68 54 41 34 49 65 85 100 115 112 107 93 89 87 88 88 84 89 88 90 93 114 130 140 148 151 142 155 147
58 46 68 59 91 93 89 81 101 85 79 96 78 92 97 86 89 84 70 53 65 64 74 66 58 36 60 71 68 89 125 114 93 89 87 114 149 154 156 159 136 113 99 95 90 93 108 113 119 126 139 136 147 151
48 59 61 77 103 130 132 114 110 98 110 82 94 80 98 94 88 71 61 67 68 80 85 80 65 63 67 98 156 158 109 145 181 216 226 170 157 138 125 103 89 75 72 81 103 112 111 103 100 104 124 134 130 126
54 62 80 81 129 148 126 131 157 127 142 101 102 101 93 79 63 72 74 80 106 108 100 101 109 125 204 242 291 334 301 228 204 179 161 129 99 75 57 67 82 82 85 110 123 119 106 103 106 116 125 153 167 160
56 75 86 125 140 162 127 157 127 136 126 111 91 79 64 64 76 100 109 111 112 141 164 173 156 202 256 285 285 278 261 191 151 111 96 80 73 77 81 90 100 127 131 119 118 109 106 109 115 119 124 124 114 104
93 68 90 116 71 105 113 103 122 115 92 78 95 77 59 81 89 88 85 103 125 143 163 206 248 258 256 222 189 178 159 129 123 104 117 111 97 115 129 152 155 127 120 101 97 89 86 90 102 115 129 121 134 146
66 55 73 27 54 79 65 80 76 85 112 130 105 112 108 103 98 82 98 111 136 134 121 148 158 165 189 165 153 150 127 95 93 127 154 150 143 129 131 120 99 92 102 96 91 98 105 104 100 105 104 102 103 111
44 38 49 72 67 68 84 76 85 113 118 107 125 144 122 110 95 104 104 135 118 107 92 98 110 140 148 142 148 146 128 122 109 92 109 177 155 145 109 104 104 90 98 101 99 103 99 98 99 105 101 90 87 114
-20 -31 -5 55 74 73 55 71 91 67 60 55 79 65 53 64 75 100 108 107 116 121 138 138 149 169 181 187 163 145 155 150 179 195 184 161 135 121 108 123 126 114 104 96 88 102 115 116 114 115 119 120 105 166
5 36 15 15 25 38 32 22 21 31 36 45 56 68 85 103 105 108 121 122 143 160 160 173 199 199 216 191 164 134 122 119 157 180 180 154 141 137 89 59 50 60 65 65 64 83 91 101 110 132 175 165 145 149
23 4 5 -0 2 8 16 23 34 43 72 76 84 95 111 124 160 177 171 167 185 209 211 199 179 187 189 193 185 169 128 109 73 88 105 108 102 78 56 44 43 53 64 64 75 92 105 143 185 190 178 154 121 96
1 8 20 31 42 43 38 43 53 73 90 105 127 150 150 142 168 186 198 148 157 176 186 190 195 183 177 183 154 154 148 112 126 111 84 72 68 63 48 50 65 76 84 77 81 93 105 129 152 147 121 93 79 72
37 51 50 62 57 45 61 66 71 80 89 101 131 151 142 153 150 130 126 124 149 166 151 141 155 141 111 89 83 89 101 85 87 74 78 71 67 56 55 62 72 77 74 77 73 84 93 124 128 103 79 64 62 65
64 77 84 86 93 95 90 96 94 90 121 137 164 167 173 150 137 107 89 97 96 94 103 88 77 77 82 87 82 67 76 84 91 101 100 90 79 69 59 58 63 77 78 72 84 87 91 99 85 74 59 52 56 52

GFSWCAN_con_3kmhel_027.txt.gz
Helicity
127 134 141 141 119 87 108 124 119 112 107 150 181 194 235 213 153 92 100 107 73 103 173 155 153 128 129 130 130 101 170 132 146 151 134 109 127 106 148 136 100 108 117 121 184 205 160 168 304 212 114 178 120 141
159 142 140 124 90 115 128 118 121 112 121 150 179 209 227 217 152 101 145 158 128 115 123 151 149 143 121 86 121 145 100 85 101 159 142 136 156 154 169 156 169 163 131 121 128 116 116 67 121 123 167 193 170 206
112 131 141 135 135 148 116 112 119 119 130 137 165 215 228 187 137 96 128 140 128 137 159 159 194 199 190 139 95 138 139 104 110 105 117 132 167 154 161 128 161 120 151 172 189 117 107 108 78 158 184 204 225 282
104 139 159 163 187 160 102 104 115 124 135 150 171 197 192 169 140 113 122 139 103 110 120 131 163 166 207 171 117 112 111 172 160 151 148 143 155 112 141 152 156 114 152 133 164 132 151 142 159 194 242 273 328 357
114 148 152 172 193 96 106 108 111 116 125 140 157 190 174 159 143 128 123 152 103 87 69 119 138 169 198 150 161 168 184 163 154 163 154 117 123 163 179 196 178 178 203 217 188 116 149 134 143 217 308 321 319 326
134 143 149 149 162 85 103 102 107 111 119 123 147 162 150 111 112 117 119 120 158 107 96 103 100 146 185 176 207 210 172 152 154 132 122 120 152 171 157 160 97 148 143 145 133 108 152 167 175 227 261 298 310 349
161 164 166 162 156 113 99 107 108 123 133 133 148 159 127 102 86 94 68 84 148 101 99 111 113 135 129 145 148 160 171 156 155 151 150 164 188 200 200 188 199 148 124 115 175 236 217 189 167 242 307 331 399 441
255 198 163 164 151 133 120 116 117 123 135 148 167 144 157 133 89 126 153 167 150 114 125 116 114 126 147 140 146 149 147 159 179 176 183 155 193 215 186 178 129 102 111 120 148 197 158 212 282 377 417 472 541 377
354 256 207 177 140 114 110 107 123 139 155 177 183 151 155 151 138 126 197 158 147 127 119 140 126 84 132 145 144 138 149 159 165 186 176 184 209 206 151 139 133 134 112 107 173 230 264 313 377 473 541 497 248 175
382 286 230 179 148 140 129 127 129 142 164 190 195 181 166 157 159 169 152 147 170 188 202 170 158 148 133 134 142 137 147 141 148 128 164 193 244 191 151 135 126 117 116 167 253 277 379 473 571 685 406 212 165 159
357 415 333 248 177 146 128 134 136 139 192 196 192 176 147 186 159 173 165 175 179 182 182 197 195 187 181 160 147 142 142 145 132 141 183 203 201 201 209 199 184 200 233 286 322 416 463 524 447 277 203 189 154 94
120 204 404 332 234 195 179 174 186 136 141 140 117 144 162 170 166 166 203 206 196 132 184 147 143 166 172 154 145 137 173 172 146 184 218 204 232 228 258 314 366 399 444 478 468 448 446 308 143 152 115 65 37 46
118 146 164 176 222 216 193 191 214 205 186 177 171 164 152 160 166 145 169 183 174 221 210 144 141 133 134 152 180 178 158 192 216 214 240 261 226 257 250 259 295 226 140 82 98 76 72 59 58 44 28 42 60 84
106 129 156 173 168 159 138 109 115 162 199 240 205 159 144 165 200 240 238 198 172 144 122 116 116 100 105 143 137 157 167 194 215 268 305 258 275 271 270 220 181 152 110 51 37 29 32 54 65 51 53 62 67 74
120 133 153 216 190 152 124 107 82 91 91 138 167 205 208 175 145 108 124 141 146 128 133 129 125 116 139 145 181 209 241 293 323 342 300 254 279 218 207 177 120 125 93 76 61 61 45 35 39 50 64 72 80 84
72 92 178 189 165 136 115 91 92 82 90 90 106 101 92 131 142 131 128 137 108 111 120 133 151 164 171 200 252 232 264 312 240 270 258 207 179 107 103 69 53 74 77 56 50 47 48 56 55 58 71 74 80 84
42 45 131 122 130 91 89 60 85 109 99 119 123 135 113 134 115 111 105 110 92 122 161 145 173 148 153 181 237 261 316 300 252 158 101 69 53 39 26 11 12 36 53 52 50 61 66 71 80 83 78 81 94 104
29 46 67 95 82 60 66 52 38 45 84 86 108 111 117 124 113 117 108 105 99 100 110 140 118 201 199 194 187 117 72 14 -15 -31 -18 -11 -4 25 36 50 58 64 67 61 55 52 59 69 72 87 98 113 110 108
25 43 81 93 61 17 26 40 39 46 52 57 72 79 78 81 81 65 59 68 57 56 72 90 119 113 105 97 96 70 47 36 34 31 46 61 79 102 112 110 101 99 93 97 103 102 98 98 94 100 97 103 109 131
41 83 110 81 71 41 42 46 49 44 60 54 74 87 81 73 61 58 54 63 76 87 107 102 81 79 77 73 68 71 65 50 75 108 125 153 149 154 160 146 137 126 118 122 104 95 88 83 96 104 112 121 120 131
42 57 66 58 83 86 62 63 76 60 52 80 72 92 99 103 105 104 93 85 119 127 124 80 91 93 106 113 94 98 116 103 112 108 127 168 181 167 165 154 134 116 93 87 96 94 115 108 106 107 110 115 127 128
44 40 33 46 71 90 90 111 100 101 116 91 109 105 126 131 128 114 106 117 127 117 116 110 114 118 153 154 155 170 141 180 190 203 212 176 162 147 130 118 105 105 112 120 109 106 105 105 107 108 104 110 110 114
46 50 58 75 97 130 113 127 151 142 153 140 143 150 135 127 111 101 128 110 114 116 112 127 143 193 206 210 240 267 237 194 202 195 176 149 136 133 127 129 119 115 113 108 105 102 100 102 101 102 98 103 105 120
50 76 92 119 129 133 115 140 123 138 144 139 129 126 109 102 88 122 124 104 107 111 131 150 143 193 219 234 238 242 231 183 151 160 140 114 128 151 146 154 141 135 133 112 102 96 92 88 85 90 98 112 126 129
77 82 92 101 89 120 121 125 131 143 127 125 130 107 76 80 111 93 86 92 124 147 148 172 220 197 180 175 172 180 185 158 135 133 150 136 132 153 176 168 151 152 125 110 104 83 69 73 79 80 81 89 101 102
38 37 54 48 65 80 53 71 63 63 82 88 66 71 80 88 86 80 81 104 135 140 130 136 134 147 174 162 145 140 134 121 103 124 138 138 142 123 133 131 118 107 99 80 75 83 84 72 67 63 65 82 90 96
21 22 32 41 40 44 33 42 45 49 34 42 56 87 81 76 71 107 96 115 114 135 129 111 109 129 127 127 127 125 116 112 96 124 123 129 130 110 76 69 77 58 77 82 76 65 63 64 61 71 86 102 98 78
53 53 46 23 45 62 57 52 41 39 48 55 66 57 48 50 67 73 76 93 113 115 121 127 130 138 156 153 135 138 147 117 143 145 135 120 97 74 69 77 92 85 84 79 70 66 81 81 88 89 111 119 120 145
-6 -7 -15 -1 1 12 26 19 20 21 25 28 52 54 50 60 68 84 107 112 120 123 129 136 160 153 167 160 164 159 163 190 207 185 155 129 128 113 110 86 64 63 70 72 58 64 68 77 84 109 120 171 156 135
24 16 21 13 10 11 17 11 12 19 35 47 57 62 73 88 115 124 119 135 150 167 168 167 152 157 155 166 173 181 158 118 83 88 100 92 91 87 69 49 48 57 59 53 58 77 75 110 110 113 136 145 134 114
-2 15 12 18 31 28 12 13 37 60 75 86 97 110 116 112 133 159 157 135 140 147 159 175 183 167 172 178 158 138 110 74 85 79 67 62 64 68 63 59 58 59 55 60 67 64 65 68 78 74 85 92 90 85
36 46 51 49 50 51 74 74 74 86 95 108 121 125 123 138 144 142 126 131 149 170 146 132 150 125 81 72 60 50 56 49 47 46 57 72 75 67 61 53 53 63 73 68 64 67 75 90 85 82 79 77 73 67
67 79 89 82 87 91 100 106 117 101 111 104 117 136 154 144 144 117 105 114 100 86 93 82 74 64 56 60 61 48 39 42 52 63 74 80 73 65 61 58 62 76 77 70 72 80 87 92 90 83 74 68 62 57

GFSWCAN_con_3kmhel_030.txt.gz
Helicity
104 116 126 109 96 82 86 111 96 130 140 162 172 142 113 85 66 107 118 107 98 120 224 192 179 147 146 164 158 115 209 123 133 139 117 90 103 80 116 116 95 102 113 114 168 200 139 128 205 152 78 95 55 66
99 117 123 116 104 102 106 81 135 143 152 187 173 155 124 102 108 100 67 120 124 149 168 194 182 170 127 103 115 132 92 91 100 158 138 137 154 161 167 150 164 147 132 135 133 125 105 25 70 91 130 124 111 131
129 134 116 94 87 107 108 114 156 135 161 163 181 178 148 134 122 66 79 110 126 147 197 189 197 204 198 139 96 130 141 104 125 121 125 148 163 168 171 131 173 108 140 170 176 99 87 68 63 93 128 136 153 169
147 127 89 93 110 116 115 129 151 143 136 161 194 196 175 175 158 193 154 148 113 123 119 150 178 174 226 157 116 119 114 186 168 162 158 142 154 111 144 151 155 109 134 140 139 84 112 93 104 112 172 186 198 235
128 135 121 112 118 132 123 130 134 133 148 198 185 151 176 199 198 208 185 209 144 96 83 142 142 191 230 169 178 182 178 152 144 148 135 107 123 159 179 189 155 180 200 198 154 127 145 108 101 110 134 153 212 310
134 146 155 150 193 160 113 122 125 139 153 146 135 135 148 161 150 150 159 169 197 129 104 127 118 149 191 195 229 210 169 150 149 128 120 128 166 176 175 154 86 130 120 130 138 106 87 119 113 130 181 202 258 315
160 168 167 185 202 179 89 101 123 151 165 160 138 140 145 122 128 133 99 136 184 123 109 123 118 129 143 148 144 155 162 144 143 140 162 165 173 176 183 170 142 74 69 78 93 137 122 123 114 162 223 307 390 452
173 174 153 174 200 138 81 96 114 133 149 135 144 136 120 92 77 148 195 188 155 94 107 97 103 104 132 121 128 139 142 152 177 167 161 154 170 179 141 106 104 101 83 84 87 92 112 122 211 283 302 368 531 616
174 177 162 143 172 127 72 82 118 125 141 124 122 121 124 124 111 104 176 166 131 100 102 108 90 61 98 111 119 128 147 151 142 165 163 158 182 163 193 135 120 115 94 79 95 137 187 253 297 346 454 591 631 592
257 218 163 151 148 161 85 78 105 150 171 155 154 132 125 127 143 127 114 112 145 159 160 127 112 120 114 125 145 140 149 146 141 138 144 174 195 229 202 128 80 84 97 113 137 171 252 349 404 477 562 567 506 326
297 238 195 147 128 132 136 127 148 176 177 175 155 134 133 182 139 136 131 144 149 156 148 158 162 160 162 154 146 145 144 133 123 143 163 203 210 199 202 201 187 199 223 264 301 355 350 359 430 426 367 302 138 43
396 308 240 190 168 161 161 161 155 160 158 147 106 148 160 160 156 152 193 171 169 121 155 133 143 164 164 137 143 139 163 169 171 183 216 213 214 208 210 211 207 188 201 222 215 214 173 171 195 176 93 54 20 35
285 306 314 301 236 189 187 180 182 142 148 174 177 175 160 177 192 171 192 185 163 191 181 158 147 129 139 157 170 153 146 176 174 180 207 260 221 195 199 205 197 174 165 183 177 124 99 62 19 3 8 19 35 45
113 170 272 327 286 238 197 191 220 174 164 158 173 169 178 188 211 218 207 163 153 138 115 133 138 117 134 150 128 138 168 186 208 234 264 247 195 199 186 183 190 174 139 107 50 -8 -28 -31 -12 11 21 28 43 49
102 152 194 272 175 153 130 121 185 217 229 180 140 161 195 191 216 172 173 188 194 149 130 139 128 117 133 147 159 186 206 253 269 262 255 234 222 208 206 166 151 128 92 73 50 36 26 31 37 35 33 34 38 49
72 97 241 271 170 127 102 98 113 86 111 158 197 211 150 175 184 184 150 115 92 100 113 122 138 148 164 198 236 240 261 242 215 224 187 162 149 123 101 79 73 73 67 54 48 46 39 32 31 40 56 69 78 71
73 96 229 198 122 89 100 89 104 109 94 117 127 123 100 115 110 104 100 101 82 110 138 139 167 159 178 208 262 260 255 201 167 132 90 78 81 50 21 18 42 53 60 49 40 50 60 70 73 89 110 109 98 92
43 97 133 140 72 63 71 79 92 105 121 120 113 126 133 142 133 128 113 104 101 111 126 147 129 194 190 188 157 111 64 35 43 66 73 78 81 72 60 68 73 80 83 87 91 102 106 115 110 98 99 88 75 72
42 49 85 87 44 22 23 32 33 64 75 68 83 93 98 97 91 79 72 80 71 67 83 95 119 108 99 92 102 68 47 39 46 73 84 102 108 122 135 139 136 133 133 121 124 116 110 119 121 104 93 95 92 94
54 74 127 78 40 22 31 32 32 34 52 52 63 74 69 67 62 58 60 66 65 70 91 99 89 82 85 85 79 77 76 77 115 147 147 160 160 179 179 152 139 127 120 117 103 103 83 76 71 83 99 102 106 115
36 75 72 48 55 57 35 38 47 36 39 65 65 71 70 79 89 93 89 66 101 109 122 107 117 121 135 151 148 120 135 101 108 111 121 158 172 162 151 143 123 110 104 94 84 88 100 89 92 101 104 101 112 113
28 49 15 45 48 59 63 81 63 59 77 62 75 79 94 101 103 109 96 121 136 129 148 146 132 127 162 167 156 152 144 173 181 199 230 181 157 142 140 122 95 89 89 91 95 96 100 106 112 108 101 103 107 106
32 40 39 70 69 89 68 81 83 79 83 70 77 92 98 107 104 97 130 119 130 140 132 135 162 189 186 175 198 231 207 179 193 186 169 152 142 124 110 107 104 108 116 129 124 117 117 110 107 112 111 116 119 113
15 39 50 69 88 67 52 81 66 96 104 107 116 121 117 116 100 145 151 135 116 104 123 142 148 176 189 209 220 211 200 165 174 190 169 133 135 141 132 119 111 107 111 101 106 110 109 112 112 125 122 119 95 81
62 80 86 90 64 86 112 114 119 121 120 119 121 121 108 108 141 135 132 112 113 128 136 147 172 170 162 161 163 178 185 154 127 133 150 140 122 123 126 116 105 111 113 113 120 120 113 114 116 108 83 72 65 68
78 30 52 45 59 77 72 128 110 72 63 77 71 83 69 86 106 118 99 97 120 145 147 128 124 144 175 164 137 133 127 113 110 134 133 140 134 100 98 111 124 102 99 93 96 104 99 85 78 72 67 76 84 86
3 -12 -17 -2 1 7 15 11 11 22 18 15 35 42 37 55 75 81 77 116 109 122 128 114 90 106 114 119 121 125 119 123 134 130 114 106 97 89 69 79 80 67 83 87 75 71 70 66 62 63 70 77 73 80
16 35 24 10 18 31 25 28 25 26 30 49 64 66 48 56 61 58 58 66 91 100 107 111 123 133 141 136 128 125 138 135 157 144 129 124 99 75 71 82 89 78 77 71 68 66 75 72 71 72 64 57 65 77
31 20 28 15 9 20 36 32 25 23 19 22 32 45 54 50 45 53 75 82 94 96 102 109 130 123 137 147 158 157 157 129 129 147 133 105 112 95 98 93 78 75 80 86 79 77 66 71 81 82 77 84 87 89
14 23 30 30 36 33 24 21 13 5 19 41 56 61 61 65 92 101 103 118 125 130 122 118 105 107 111 129 130 141 134 114 86 104 108 88 67 63 56 60 70 70 76 76 71 79 85 97 96 110 115 115 106 100
7 21 27 33 43 40 31 16 37 55 66 76 85 83 84 87 114 143 147 130 125 120 139 159 168 131 143 138 125 128 122 76 74 51 38 35 31 48 58 59 61 63 65 66 67 71 72 74 79 84 92 94 83 78
26 38 40 44 50 62 83 87 85 97 110 108 113 112 120 117 116 118 125 118 135 156 132 129 134 108 73 70 68 54 51 41 38 30 18 37 48 59 62 64 66 74 76 70 69 71 72 73 68 74 79 77 71 62
52 63 80 82 80 90 97 104 120 106 131 131 140 122 110 107 108 101 101 104 99 105 104 89 83 75 59 45 44 38 33 34 21 19 28 39 44 50 62 64 73 78 80 74 69 68 68 71 70 71 76 72 67 61

GFSWCAN_con_3kmhel_033.txt.gz
Helicity
97 112 113 102 83 70 80 94 89 86 88 80 80 98 98 107 129 162 134 109 64 97 173 179 162 148 196 202 164 139 207 134 133 126 99 77 81 75 89 87 66 80 96 91 132 145 87 75 106 105 86 62 77 66
144 136 107 112 108 113 98 84 86 80 85 87 92 88 84 59 97 109 86 82 114 121 141 186 133 148 130 130 152 152 102 105 101 145 116 103 122 119 120 93 107 103 99 110 100 109 86 32 57 90 109 105 125 141
153 112 112 117 104 97 98 84 80 76 104 96 90 75 90 56 112 103 87 82 120 147 202 190 211 196 170 149 114 130 145 102 118 116 104 126 131 122 127 101 127 73 112 142 131 68 54 39 54 84 129 145 128 121
116 109 103 103 108 114 98 101 115 127 143 119 118 114 113 121 136 154 128 68 97 136 120 183 219 203 263 175 132 116 112 181 160 146 143 134 145 97 125 126 111 99 134 113 99 63 88 69 77 72 94 101 116 141
125 113 116 117 103 102 110 115 136 154 159 137 154 161 150 147 173 305 95 51 82 73 101 164 179 216 247 174 170 178 191 173 148 150 144 128 126 139 155 150 98 141 117 130 117 101 98 83 69 73 81 101 106 163
117 122 122 115 124 127 119 151 158 139 119 161 162 146 147 166 196 127 101 122 163 109 66 136 136 182 230 231 262 243 194 161 141 126 127 137 146 155 161 119 117 109 86 93 97 92 80 74 77 93 106 132 178 247
105 112 117 118 126 104 107 158 162 190 168 144 140 155 128 93 158 133 101 161 185 136 109 127 131 162 165 159 159 176 182 148 143 141 166 169 161 158 163 143 141 126 105 83 95 79 84 113 111 142 196 273 374 429
153 137 130 139 179 134 107 142 163 193 176 145 146 146 113 100 101 202 267 257 171 102 124 101 117 113 141 123 126 146 136 142 166 151 144 153 154 160 135 163 143 128 112 90 128 92 101 147 186 212 246 335 489 539
159 183 155 150 194 172 126 136 138 146 141 133 117 115 149 163 149 156 234 202 155 111 112 107 81 67 90 98 109 116 132 139 122 157 166 135 160 213 175 136 138 129 67 47 119 175 206 227 209 232 316 426 541 498
175 146 151 185 219 174 218 131 145 169 164 137 119 135 144 148 185 160 135 128 141 146 127 95 84 90 90 106 130 127 138 142 140 157 146 188 244 218 180 133 97 110 149 108 80 133 176 216 255 278 268 235 202 207
198 154 119 138 196 225 169 165 158 178 156 131 142 149 122 141 96 103 111 117 136 123 114 108 110 110 126 123 139 139 144 141 127 152 160 185 230 206 159 161 139 121 120 132 146 172 166 143 153 179 181 164 161 143
304 240 186 161 146 163 164 152 193 146 113 81 44 84 132 148 125 121 143 123 120 95 117 124 147 172 176 145 151 143 165 157 167 177 193 186 183 171 191 150 116 86 46 38 38 44 58 70 68 67 48 9 -37 -51
358 328 291 265 210 172 159 150 140 105 129 148 131 124 109 127 147 125 100 116 123 134 145 143 165 151 148 150 161 138 147 202 181 199 222 229 198 200 151 140 136 110 110 104 97 76 49 17 -21 -31 -26 -6 11 28
270 270 304 291 217 187 197 207 158 120 130 114 120 159 148 147 153 177 167 147 131 124 127 134 141 121 123 136 143 162 173 179 197 190 200 225 170 135 124 131 125 129 121 98 86 59 45 35 26 26 35 39 40 45
142 242 269 394 291 168 181 207 170 106 111 129 143 143 163 139 163 141 138 128 133 123 139 156 171 150 144 143 145 160 172 191 176 185 169 147 139 118 114 125 138 130 94 83 57 52 47 51 50 45 59 60 67 72
54 91 211 241 182 155 112 155 166 146 133 152 201 158 119 159 166 169 176 171 165 169 152 141 128 114 126 141 162 160 173 178 151 139 125 108 90 75 83 71 92 92 80 77 77 69 53 45 46 52 63 92 89 79
102 118 263 197 101 94 112 73 102 151 180 222 250 241 201 197 160 116 89 76 61 84 99 96 133 130 131 151 175 171 167 111 86 92 73 66 64 62 59 59 82 111 111 97 76 78 87 82 79 99 108 94 77 75
75 153 171 132 57 84 107 96 78 90 139 119 106 111 113 125 115 122 113 108 110 120 133 148 121 175 182 170 141 106 101 91 102 109 112 98 88 95 96 115 124 122 113 105 100 105 110 102 96 79 80 79 76 91
19 57 88 90 40 33 65 92 86 90 101 109 112 124 132 134 138 117 117 120 112 104 113 127 145 124 108 85 74 65 74 75 76 94 110 139 147 158 168 169 157 143 134 132 130 109 94 100 84 76 74 74 83 93
26 61 107 67 9 8 30 34 22 39 72 63 70 86 79 80 71 77 69 77 76 76 95 99 90 80 80 82 74 72 71 81 130 152 164 179 177 197 202 170 150 136 133 127 116 112 85 74 76 78 90 99 107 106
36 77 78 31 42 34 19 25 33 25 24 43 49 52 50 56 64 66 63 64 81 84 91 81 94 113 125 138 140 132 156 118 126 114 127 159 178 185 177 161 147 136 119 98 83 76 74 77 88 101 108 110 113 108
34 57 23 50 33 37 40 56 37 31 48 47 60 60 71 79 81 77 67 89 98 107 112 121 121 129 163 187 193 173 142 163 179 202 240 196 170 168 169 150 127 109 90 80 74 80 86 98 112 116 110 115 117 120
4 20 32 62 54 72 49 64 66 68 63 57 65 80 86 93 97 94 116 105 110 118 129 140 163 168 174 183 188 204 185 187 201 199 191 184 172 148 126 109 93 91 90 98 103 108 106 108 108 116 127 127 113 104
6 29 48 68 93 87 75 108 83 100 89 93 99 110 113 112 97 136 142 130 117 126 125 125 132 173 184 187 182 177 186 167 168 182 158 128 126 121 108 101 100 111 118 108 109 111 108 111 124 130 123 113 100 81
23 51 61 85 82 93 115 118 132 122 128 116 121 115 92 96 130 136 137 123 123 126 128 130 138 148 148 145 153 161 163 137 127 135 143 125 113 112 128 127 122 127 120 121 130 130 132 126 121 111 106 89 70 55
36 30 36 23 32 52 47 90 90 77 71 71 47 41 48 74 113 134 91 90 96 136 158 140 122 136 158 129 111 114 116 99 95 112 118 139 147 130 129 133 127 119 110 90 92 108 110 106 104 97 83 71 67 62
-4 -12 -24 -11 -16 -19 -18 -21 -16 -1 -10 -14 8 28 22 45 56 52 46 69 65 80 91 95 80 78 86 97 102 97 99 116 130 135 137 143 142 138 125 116 107 84 86 94 94 101 96 89 79 65 58 65 72 80
5 0 1 -13 7 11 19 24 19 21 23 23 24 42 45 53 41 42 51 40 55 63 74 83 93 99 107 108 102 95 123 140 165 152 142 135 118 102 92 77 76 82 88 90 88 85 78 71 64 59 64 70 73 87
13 0 7 -10 -13 -1 2 15 21 25 16 19 31 35 40 45 40 38 52 59 67 71 77 83 98 96 114 127 145 152 132 115 126 151 149 126 118 100 95 96 87 81 84 83 80 76 63 68 78 83 84 78 77 86
-2 -14 12 8 12 10 14 18 11 6 24 43 63 74 77 70 86 87 88 100 104 104 94 92 82 81 92 106 118 135 136 127 118 121 107 96 81 77 74 72 66 67 75 76 80 85 85 94 93 103 104 102 102 100
-6 7 11 11 18 17 23 18 38 55 66 77 94 94 88 84 102 134 134 111 100 99 104 117 131 119 133 139 134 130 124 91 79 60 52 66 68 62 57 57 64 72 76 76 79 80 80 84 87 88 92 97 97 95
21 26 26 26 28 41 71 81 77 87 99 104 115 111 109 109 113 92 103 92 98 121 115 116 131 123 83 76 74 68 66 71 72 66 59 58 54 54 64 74 79 76 73 74 79 79 78 78 77 81 83 83 81 82
47 54 63 57 56 73 74 86 107 97 129 125 122 106 103 98 92 77 78 92 101 113 120 110 85 72 61 53 55 60 57 54 44 40 44 47 51 54 63 67 66 68 72 77 78 78 77 77 77 77 74 74 73 75

GFSWCAN_con_3kmhel_039.txt.gz
Helicity
4 -1 -7 -2 -8 16 104 90 105 227 318 169 153 127 118 42 -23 246 276 173 167 245 206 172 131 97 137 80 108 76 116 113 89 86 71 61 64 48 55 47 34 43 53 64 96 78 49 114 112 138 163 100 122 100
17 24 19 53 78 9 122 314 181 107 106 184 164 139 121 -32 41 351 238 174 190 208 187 182 227 219 202 178 87 47 85 68 72 91 107 88 81 73 81 35 60 60 72 86 71 99 139 95 124 123 109 100 109 109
38 62 72 125 175 299 302 119 58 133 175 129 128 86 44 -16 49 252 179 165 153 164 139 120 121 140 200 255 225 114 132 125 100 147 102 102 80 72 77 66 83 89 100 113 108 129 134 111 117 133 164 137 99 97
369 325 313 227 126 89 92 128 141 119 116 107 92 59 41 24 84 199 179 166 128 133 139 113 101 142 184 163 147 170 149 168 135 130 150 120 108 78 90 105 89 160 88 97 92 92 130 151 190 160 115 90 105 117
94 107 108 110 121 121 118 102 96 96 96 91 68 47 23 32 99 117 118 166 171 141 106 121 94 188 175 131 127 108 75 109 133 169 162 145 136 120 124 130 127 116 152 118 142 184 151 147 219 127 126 152 146 157
127 127 125 115 95 82 71 73 81 75 63 60 62 56 63 94 115 76 70 91 134 100 73 172 136 169 173 170 172 183 174 187 176 184 169 173 134 124 120 125 187 157 158 159 176 151 130 149 206 168 198 215 220 260
141 137 146 136 102 103 93 77 68 74 74 80 86 100 119 151 127 105 76 88 126 56 99 161 170 158 183 168 207 197 191 201 196 195 195 169 158 161 168 159 169 164 165 161 165 142 198 206 204 199 199 185 236 246
167 189 163 150 127 126 124 129 116 122 130 132 144 216 211 116 42 131 145 247 109 56 70 114 146 178 237 209 197 227 218 208 232 183 174 177 181 206 201 225 210 197 205 231 196 210 231 242 212 182 153 149 170 148
117 165 176 150 133 172 132 138 179 159 158 187 204 152 164 157 129 115 138 138 25 66 105 107 130 134 172 175 190 188 181 177 154 189 191 164 195 203 217 217 233 224 226 195 224 202 195 190 182 149 124 109 101 84
141 204 260 258 258 195 156 125 127 115 127 154 207 183 164 154 181 154 120 64 43 45 75 94 116 116 143 165 176 166 168 134 145 162 158 217 228 225 231 250 242 203 158 152 174 170 158 164 137 114 127 121 119 132
185 175 217 307 309 150 164 144 172 174 197 256 238 188 245 207 153 133 94 119 109 114 98 114 134 125 149 141 158 165 137 135 142 138 145 156 168 178 220 219 185 149 161 162 184 162 144 128 120 108 118 123 120 119
145 173 171 169 196 159 181 252 187 172 188 173 189 194 141 165 133 85 121 154 157 96 107 144 156 148 144 138 134 140 139 133 140 127 158 172 195 220 220 198 184 194 201 198 179 175 158 149 138 132 135 134 125 105
138 126 169 206 183 178 137 168 174 157 200 259 235 193 173 157 154 136 99 105 98 108 141 137 165 155 141 142 144 129 126 151 153 176 204 254 217 233 197 151 162 186 183 164 153 150 153 162 155 142 134 129 98 122
177 186 188 216 216 195 200 157 125 210 173 186 219 187 145 108 114 96 137 146 140 132 131 142 189 158 158 164 153 143 169 165 170 174 185 180 196 181 159 144 156 170 162 156 163 159 147 136 141 135 123 123 133 135
143 195 186 287 222 189 174 167 172 117 162 160 186 175 147 108 116 145 124 120 171 139 127 148 162 157 168 159 167 177 159 166 159 199 155 178 145 138 150 161 163 160 138 149 156 158 147 128 126 144 144 140 124 108
144 203 221 225 195 188 122 132 159 109 177 144 166 154 181 216 184 131 140 139 152 152 164 162 155 167 181 184 184 197 208 220 201 216 193 147 120 156 150 169 165 168 168 170 157 150 148 153 142 135 124 122 87 93
108 142 238 183 200 210 162 114 119 96 82 105 138 171 133 145 138 128 119 127 153 149 175 148 178 178 153 158 207 244 282 221 195 129 109 140 159 172 199 191 176 168 167 169 157 152 142 133 124 131 127 120 95 84
42 12 102 133 93 172 238 175 117 101 129 178 153 163 171 179 156 166 158 168 156 146 165 175 158 169 185 186 175 117 117 139 136 144 155 153 164 142 131 151 154 167 157 149 146 144 144 132 129 130 118 105 72 82
14 50 73 42 -4 30 115 174 118 218 240 203 180 181 188 176 173 141 134 118 109 103 109 126 154 186 173 144 128 128 131 143 158 192 201 182 174 171 180 198 159 162 169 161 150 147 140 145 137 122 105 86 81 87
-10 71 109 83 12 -9 21 32 29 86 163 109 95 107 97 99 83 93 114 149 142 133 161 168 166 147 147 138 159 117 105 109 120 139 153 152 162 184 170 163 169 161 158 151 161 156 130 123 123 107 101 87 85 88
8 55 58 15 26 27 26 34 37 57 62 73 91 97 87 88 113 141 162 170 147 164 164 159 138 131 122 133 151 157 155 122 119 107 116 137 144 162 177 184 182 181 174 165 152 138 138 133 114 99 91 89 91 72
27 47 21 41 19 26 38 70 62 53 57 67 78 68 80 81 90 106 97 118 127 139 118 121 113 116 143 179 178 167 158 167 182 218 233 197 163 165 177 174 168 176 171 161 148 135 122 121 114 99 88 94 73 104
34 49 59 65 44 58 59 84 84 88 84 90 88 94 95 92 90 80 117 116 121 138 117 117 134 146 147 160 175 203 182 150 156 165 183 186 184 179 179 189 179 163 146 142 131 127 124 105 107 88 87 99 117 133
43 69 82 80 103 91 84 108 100 102 104 110 106 106 117 124 110 144 156 149 145 143 133 125 109 111 127 165 185 220 213 152 145 169 165 149 158 170 162 156 148 147 141 123 123 120 112 103 90 103 130 129 135 128
69 94 89 115 110 115 132 129 131 118 124 121 110 115 114 94 130 147 148 134 141 150 134 113 116 130 124 130 138 149 205 170 140 152 172 155 137 128 128 128 134 138 135 129 127 114 110 108 123 144 139 126 120 105
90 114 95 99 97 105 110 109 111 101 90 94 94 62 42 71 113 141 103 87 84 95 110 130 110 103 139 149 129 129 145 142 117 133 146 152 153 138 131 127 109 126 127 113 106 119 129 138 137 129 114 100 96 93
66 58 26 -2 5 12 13 9 5 16 24 31 10 4 -2 49 49 25 23 43 45 59 77 95 108 106 97 89 88 95 106 137 154 133 125 135 147 163 162 154 150 140 103 119 114 112 117 115 113 106 94 87 95 100
4 -3 12 3 -1 8 13 20 20 19 14 10 1 22 26 42 47 48 65 59 62 60 64 71 84 92 99 105 104 103 114 110 104 98 103 112 118 113 112 105 111 100 91 104 102 92 106 100 90 77 79 86 83 87
18 8 4 18 9 12 16 17 19 19 14 19 30 38 43 53 64 72 73 79 82 84 88 89 94 88 99 114 131 137 142 145 139 134 131 125 116 115 106 90 84 88 94 98 95 90 92 85 77 79 76 74 76 75
17 0 17 22 24 30 27 31 35 28 37 50 57 63 77 91 116 123 126 133 133 126 116 112 112 123 135 137 139 138 135 133 129 133 122 121 121 102 81 87 97 98 94 92 94 88 72 79 63 59 67 72 74 82
-3 4 20 29 40 48 47 41 45 63 70 90 126 136 122 104 108 133 145 131 121 122 123 135 150 147 152 154 149 137 129 109 93 86 81 70 72 78 86 95 84 86 85 77 77 70 72 71 70 72 74 77 72 70
27 41 42 49 68 77 78 89 86 94 94 96 100 92 83 87 107 95 118 126 117 125 126 122 124 130 117 109 96 88 80 73 66 71 69 79 79 82 84 83 82 79 75 75 69 66 68 71 71 69 69 69 79 75
44 58 64 65 66 73 78 65 78 81 89 88 88 94 109 112 101 77 64 80 94 101 109 107 97 91 85 74 75 69 51 59 72 61 74 74 75 80 81 77 79 82 75 75 73 70 69 65 66 68 71 70 67 65

GFSWCAN_con_3kmhel_045.txt.gz
Helicity
15 16 2 16 19 28 -23 -77 -42 12 3 58 62 59 44 73 66 36 11 -2 133 196 225 136 103 181 179 185 303 258 326 274 131 243 219 229 162 156 149 131 86 106 137 124 166 133 71 104 140 115 130 237 196 168
-2 5 5 31 21 -8 -44 -57 -44 19 13 38 74 74 58 81 68 70 -22 -17 -34 154 177 252 168 221 138 228 344 339 345 345 83 212 223 218 169 182 174 130 83 98 75 71 79 58 79 205 262 288 246 247 214 201
16 17 26 16 -10 -25 -21 -35 35 12 23 54 55 68 97 41 69 40 -146 -51 -59 166 -66 335 187 243 310 284 222 279 277 179 104 143 181 143 141 114 144 124 130 125 98 105 108 63 228 372 401 357 303 243 272 238
19 9 3 -8 -27 -18 25 39 48 44 47 62 48 34 32 -2 96 25 -185 -124 33 150 84 131 166 294 245 134 325 353 423 181 197 218 159 126 111 91 89 89 129 116 125 111 155 255 418 446 416 405 395 324 278 303
18 18 4 -13 -20 -15 -6 10 14 25 27 -2 -13 -0 -12 -3 -0 -232 -263 -199 10 151 71 249 376 295 137 297 194 233 86 195 211 201 165 145 112 118 136 147 158 148 152 157 153 225 310 380 402 382 368 345 261 245
38 25 20 3 -22 -53 -53 -30 -9 -29 -32 -29 -8 -10 -33 -66 -131 -463 -237 127 71 80 125 283 367 454 226 105 157 240 141 179 207 183 169 177 152 130 151 158 181 223 297 267 238 310 378 370 385 328 308 282 283 276
5 61 126 166 148 116 69 57 64 44 38 58 102 79 42 -214 -230 -121 -1 57 55 91 198 351 331 259 294 317 393 351 249 242 194 208 211 174 205 195 187 184 176 232 257 322 303 379 325 250 236 249 272 269 285 277
193 154 113 167 271 346 352 306 201 103 118 93 63 -123 -227 -39 42 -50 301 166 93 40 138 181 241 259 324 323 304 365 365 313 284 207 246 211 258 258 225 279 280 297 313 344 378 342 351 305 271 254 244 237 281 272
58 113 144 127 83 68 56 63 48 30 -22 -87 -154 -60 22 35 36 57 43 86 157 49 107 162 207 245 269 283 283 269 246 243 215 248 252 222 260 255 223 277 321 308 281 347 311 306 336 331 309 276 271 292 273 217
110 87 98 33 -21 18 60 39 43 33 12 -143 123 73 128 226 102 205 167 169 146 139 134 124 203 190 232 275 284 229 214 172 205 209 219 229 258 292 379 341 328 334 325 293 335 314 276 264 252 270 314 279 244 216
215 169 113 73 46 40 40 48 48 13 18 136 99 185 164 185 216 115 150 158 153 122 141 156 139 173 223 202 251 233 204 213 192 190 187 192 198 211 237 281 250 255 251 255 256 247 294 342 325 307 266 238 207 194
301 308 270 213 125 100 86 20 -55 137 213 149 68 149 181 100 121 88 109 99 95 73 98 172 159 171 189 194 160 185 160 171 156 139 207 177 177 157 168 173 252 308 331 342 313 296 318 324 279 260 218 196 203 196
111 233 293 233 237 206 146 68 112 104 107 103 122 132 93 110 101 82 72 89 56 42 117 177 153 125 122 132 134 141 168 179 144 155 159 148 129 141 199 294 338 402 416 418 442 401 356 339 285 240 221 182 187 203
104 192 217 231 189 180 186 153 133 111 98 112 110 107 117 71 90 77 69 74 73 80 108 162 140 84 100 144 119 154 154 143 143 141 126 131 164 185 284 355 375 370 369 311 311 298 267 243 228 220 210 175 164 160
127 143 208 302 309 216 180 118 68 100 160 153 141 86 94 64 102 71 67 88 146 115 159 127 106 81 132 124 141 134 151 149 134 123 127 120 149 201 335 353 378 395 335 301 243 192 163 161 185 193 159 143 123 108
81 136 257 214 171 185 255 154 191 198 157 124 109 83 113 125 99 116 143 140 153 137 132 108 96 126 156 159 164 173 155 143 122 135 127 169 217 319 323 333 316 278 221 172 161 155 150 146 137 123 116 98 83 81
112 147 239 137 112 139 160 162 203 198 158 144 196 196 129 160 151 140 120 140 143 141 167 176 193 189 161 165 175 197 181 149 141 150 165 236 337 307 236 158 208 192 167 176 172 175 156 128 109 125 162 147 96 111
92 182 175 138 74 145 141 104 66 76 125 180 200 207 244 171 184 211 205 187 134 143 148 141 146 188 211 205 164 133 146 163 195 215 218 219 208 165 169 252 266 230 210 191 167 147 140 177 195 170 164 162 157 141
-21 20 103 84 49 45 64 72 71 92 133 137 155 174 194 201 234 205 200 207 174 173 171 175 198 224 223 209 179 158 154 141 160 187 213 219 242 252 252 240 227 193 164 164 185 201 222 225 187 161 154 144 140 133
-47 43 58 68 -6 69 103 94 105 104 133 145 159 181 155 158 176 190 200 203 187 149 199 210 224 207 164 126 95 94 92 92 141 214 238 218 202 215 207 198 207 229 253 281 245 186 202 208 179 157 157 143 130 113
-19 14 18 -17 27 4 27 46 110 114 134 168 144 122 136 140 188 207 212 155 204 209 194 125 105 158 182 209 185 132 102 103 130 136 155 201 215 241 240 217 215 246 249 223 244 252 243 198 175 161 151 112 99 111
-9 4 -19 2 -16 -14 -18 24 14 5 24 59 59 43 101 130 151 166 135 253 195 166 129 133 147 157 224 320 276 233 215 229 219 213 217 205 216 233 232 245 286 308 304 262 239 216 196 166 147 135 128 105 130 141
-8 6 8 10 1 2 -11 31 34 44 35 46 58 53 61 73 86 74 97 160 179 159 101 83 95 117 146 190 255 272 255 258 267 251 252 250 252 260 300 313 215 222 233 225 196 169 157 129 118 119 132 139 137 136
12 15 6 3 22 24 36 76 78 73 76 77 78 78 91 99 95 101 122 122 135 157 190 190 78 74 116 183 230 258 196 192 256 244 204 200 210 203 211 232 247 245 205 174 172 157 141 129 139 143 128 114 119 128
50 48 60 76 65 79 91 99 126 108 114 121 110 115 110 94 111 116 115 99 122 149 185 119 120 133 117 114 141 177 234 162 177 217 233 156 122 134 156 162 174 180 155 155 155 154 144 149 137 122 115 119 121 120
94 102 85 89 84 87 84 92 99 117 113 111 112 82 70 91 119 128 95 68 62 74 99 121 69 64 93 101 102 123 144 93 101 146 175 192 221 167 121 110 126 140 128 122 139 158 152 141 131 135 131 138 150 172
103 113 66 19 21 13 19 20 24 39 46 51 32 29 21 71 73 29 10 18 16 21 40 68 72 64 55 50 58 78 100 106 92 99 108 142 161 162 150 144 131 88 93 96 90 91 94 101 112 120 134 151 158 148
9 4 36 9 11 23 12 16 24 28 20 14 12 39 25 35 40 35 42 34 26 16 28 41 56 70 88 96 108 122 126 92 100 99 100 121 134 123 108 66 50 34 36 50 44 44 71 86 109 117 133 134 129 116
11 -0 7 25 18 22 28 23 21 18 12 12 31 39 37 52 97 90 93 94 112 114 105 100 57 49 58 77 126 159 180 193 170 184 189 135 117 121 80 71 65 65 64 77 93 101 103 104 103 100 94 114 106 95
18 2 3 29 29 32 22 24 22 38 53 38 41 63 105 99 138 159 154 140 126 104 114 128 131 148 169 118 97 110 106 95 104 109 110 104 88 84 84 85 90 76 90 102 101 103 113 122 114 116 124 128 129 115
-13 -3 9 18 23 24 24 37 46 47 44 76 104 77 64 69 93 130 177 98 113 191 104 94 106 116 120 121 112 96 94 71 78 76 67 68 75 77 84 94 108 111 112 106 97 100 105 111 109 104 103 109 118 121
13 15 19 31 36 34 29 55 51 72 33 22 28 39 23 52 68 63 67 72 92 97 103 94 75 63 64 59 60 53 46 66 76 47 45 61 68 71 87 99 114 112 111 113 116 115 111 105 99 94 98 117 94 85
26 36 52 55 55 59 48 52 57 70 83 59 57 57 65 65 59 37 25 35 61 69 66 55 42 42 57 69 72 93 116 78 80 96 95 69 64 82 86 94 98 98 103 104 106 108 109 105 99 86 93 91 82 96

GFSWCAN_con_3kmhel_048.txt.gz
Helicity
30 6 14 30 30 7 8 23 32 45 45 31 42 68 77 57 117 150 -41 15 172 300 296 145 204 169 106 135 146 136 211 222 262 275 222 235 276 221 219 171 181 208 238 223 244 228 130 113 196 160 145 207 186 158
41 35 27 13 -0 1 24 22 27 40 48 30 33 51 47 113 162 200 -114 -170 36 124 287 159 239 220 168 105 208 149 159 201 183 255 208 230 258 301 283 201 212 225 177 155 124 95 129 128 137 177 210 226 186 164
28 29 15 -1 -5 17 -8 -27 -51 6 43 45 54 137 152 135 138 188 -111 -124 -4 -39 106 105 226 188 33 69 214 174 200 164 236 240 335 343 251 240 240 210 216 196 144 148 184 194 292 314 315 289 275 267 235 192
7 13 9 16 16 5 -41 -59 33 35 57 106 132 138 148 116 126 149 -39 -60 -2 42 -99 283 164 127 133 167 325 195 113 234 262 382 312 224 90 164 193 163 228 170 185 206 227 240 316 331 329 315 340 303 305 313
14 3 7 -3 -12 -11 -72 -90 40 60 67 99 97 133 155 97 100 110 79 -19 34 79 72 34 155 100 140 122 268 235 206 312 349 329 363 272 127 179 245 228 215 213 212 236 167 168 248 307 336 312 329 299 279 298
9 2 -15 -63 -45 -4 6 -18 49 47 62 59 57 33 25 51 38 69 -84 16 103 -37 52 113 94 98 163 231 210 291 401 306 342 317 257 105 215 208 207 167 163 190 182 185 167 333 339 408 405 341 358 321 310 324
3 2 -1 -21 -9 14 64 64 55 50 40 44 32 27 32 34 64 29 60 -5 -0 90 86 12 2 230 59 258 404 396 419 281 316 266 136 202 273 210 182 156 152 218 240 272 330 445 403 322 301 329 333 309 343 350
35 19 -5 -16 -19 -11 -13 3 14 28 15 8 21 30 19 -29 -35 5 165 86 85 129 137 20 -11 103 168 233 376 431 227 264 300 134 138 155 247 245 180 201 272 313 317 290 309 266 308 348 356 353 344 352 414 387
296 256 114 28 -13 -16 12 2 4 2 -19 -4 7 -21 25 -19 -76 -30 28 54 71 67 65 94 239 216 201 329 280 229 167 221 182 239 122 190 241 217 190 217 278 290 250 339 373 348 339 359 342 337 364 355 369 355
177 230 303 326 218 82 25 11 53 61 5 48 -8 10 -175 -311 -147 -223 -32 52 22 37 45 104 216 199 206 262 286 265 243 193 205 210 216 182 243 273 305 293 296 270 296 338 413 349 346 338 333 340 327 330 340 315
41 105 167 149 125 125 119 26 -29 -80 -33 19 -17 41 190 6 25 26 40 183 125 92 117 155 164 200 239 194 208 227 186 178 160 179 225 236 237 281 294 318 291 281 263 262 268 262 251 261 308 361 395 374 326 274
92 -12 -15 17 9 -44 -29 -33 -125 -68 -8 17 80 96 70 101 86 73 139 132 129 95 130 124 167 181 181 195 181 231 213 188 140 162 217 194 177 209 245 294 295 296 300 317 316 324 317 317 321 348 334 310 268 221
205 184 77 -60 -85 -56 -82 -80 66 13 -5 192 147 102 162 96 76 77 67 70 77 114 136 132 179 160 163 209 179 178 192 186 143 167 145 170 159 200 229 305 401 426 410 401 419 420 426 401 342 343 310 241 203 189
217 233 248 226 91 -44 -27 48 49 105 136 107 113 116 68 77 52 46 57 75 55 85 87 128 183 150 172 199 124 157 168 149 199 181 161 148 163 211 261 314 372 377 412 384 381 387 389 371 363 276 196 151 156 167
184 212 239 325 170 78 100 22 33 41 49 55 61 65 52 49 39 46 49 76 106 104 87 158 216 179 149 136 136 128 133 138 128 145 137 139 243 294 321 303 343 352 351 333 314 348 331 265 224 194 158 154 147 134
142 204 303 327 208 157 94 60 96 58 58 61 82 67 60 100 134 118 103 95 102 111 118 117 93 123 137 120 137 149 134 125 108 111 109 174 248 290 301 325 313 276 248 267 260 217 194 190 183 174 154 135 121 110
156 157 317 223 193 196 164 86 85 86 45 51 64 110 85 98 105 91 95 105 99 92 106 84 138 139 113 143 175 193 173 156 141 174 179 232 256 293 311 300 248 226 222 206 195 191 172 159 162 143 135 135 148 125
101 181 138 92 98 170 204 199 126 93 95 144 113 192 207 163 130 146 156 158 113 144 156 161 154 187 203 186 167 153 151 165 181 178 188 214 270 230 176 160 148 173 197 193 181 163 152 163 176 179 179 176 184 169
65 116 142 88 18 23 105 136 109 152 232 203 209 226 206 205 266 212 197 199 198 192 178 197 192 222 223 194 177 149 160 173 197 219 205 147 164 200 211 214 204 200 205 193 212 220 219 205 191 192 196 184 180 158
-2 69 123 134 48 45 53 86 85 102 143 132 153 182 161 157 156 194 213 255 206 150 185 211 249 249 228 220 162 139 120 108 133 172 193 213 195 212 202 209 209 203 220 239 267 267 250 245 229 215 207 183 163 146
-22 34 15 27 90 68 77 98 110 124 135 143 112 121 116 168 252 280 319 293 341 310 324 288 259 206 196 178 150 103 114 142 148 144 159 209 192 214 218 223 230 263 280 278 289 281 257 227 210 195 179 180 163 117
-3 -3 -7 37 8 -24 -17 3 1 18 68 81 106 71 115 147 191 247 255 314 257 267 177 105 131 152 231 264 230 244 177 192 194 210 225 216 231 239 243 230 256 283 286 255 234 232 213 204 186 177 163 156 146 140
-3 -11 15 26 3 -3 3 60 41 54 36 47 60 68 85 102 68 43 89 189 198 198 144 92 117 138 165 210 256 308 305 269 265 242 237 244 252 256 258 262 236 231 234 215 179 177 189 185 169 161 155 147 147 165
17 21 22 14 32 19 39 97 97 96 91 101 98 108 129 111 80 116 148 171 186 183 179 126 90 97 129 182 224 244 206 170 197 226 185 166 189 211 213 223 237 233 198 185 180 174 169 160 151 146 145 154 167 155
52 47 59 62 58 83 106 129 161 127 129 138 138 145 132 103 113 137 133 142 147 170 159 81 88 100 106 117 132 156 167 127 128 162 198 131 117 137 166 179 198 198 162 162 164 158 158 151 154 171 180 173 169 153
73 67 69 69 63 80 67 85 99 123 115 121 116 92 85 107 130 146 104 84 73 78 86 81 56 60 89 86 99 118 112 80 84 132 166 159 143 108 115 131 136 142 116 92 112 138 148 152 152 161 158 170 181 180
81 90 46 -1 -2 -14 13 25 16 32 43 49 43 49 41 85 81 35 4 9 12 15 28 43 48 57 62 65 70 92 109 110 109 104 116 162 176 163 123 119 115 87 79 87 80 82 90 95 102 113 120 136 139 143
21 13 36 3 17 20 10 17 26 27 15 16 18 43 29 31 36 29 32 35 14 22 38 53 63 62 72 84 99 99 109 84 97 103 116 148 152 168 144 86 73 76 68 60 60 69 75 77 89 106 122 127 139 152
-6 -23 2 18 15 25 29 29 31 21 18 18 32 38 39 58 94 87 95 98 86 87 117 102 79 62 79 109 144 170 180 135 106 131 137 120 122 112 116 110 104 97 85 86 84 89 86 95 99 93 95 99 103 124
4 -2 18 30 36 38 26 31 24 32 50 38 54 95 169 140 155 131 121 125 114 100 87 95 100 108 94 76 80 94 87 72 78 65 73 69 61 62 70 83 93 101 109 112 117 108 117 140 138 146 147 137 135 133
-27 -5 13 15 11 20 45 45 55 63 45 65 86 81 57 67 104 133 129 96 102 105 87 82 85 74 74 82 74 75 87 60 62 54 46 44 49 59 70 81 91 93 96 105 116 123 120 118 119 119 116 109 103 101
11 12 14 13 10 10 45 35 48 46 19 33 28 41 35 61 66 57 50 35 65 76 75 70 71 53 35 41 67 77 78 60 66 59 70 64 65 63 70 83 94 104 111 113 118 129 135 131 128 132 119 89 93 85
21 28 40 42 43 57 48 68 77 75 67 48 45 48 51 50 50 30 33 23 25 29 41 39 39 55 110 91 74 64 61 57 69 98 102 114 92 83 90 95 100 106 110 114 122 137 142 136 118 107 104 101 89 85

GFSWCAN_con_3kmhel_051.txt.gz
Helicity
50 56 86 124 96 126 122 152 136 80 46 51 42 16 84 87 88 209 172 208 88 168 256 232 267 174 157 109 127 84 132 174 163 205 149 174 189 218 255 225 253 267 288 226 257 238 165 181 253 219 140 218 207 193
56 47 36 37 31 49 86 86 80 76 77 69 77 27 59 27 8 128 258 195 115 91 194 206 241 200 81 102 125 139 151 111 152 168 170 159 210 247 283 282 303 237 190 212 190 172 228 160 129 182 168 182 142 162
-10 -16 -19 -18 -3 10 18 38 54 33 -30 -15 -3 -29 66 68 28 90 240 132 143 32 43 76 122 192 143 84 116 122 149 130 170 142 150 168 183 251 217 270 310 255 235 245 269 242 237 215 249 228 212 204 180 179
-10 -12 -12 -10 -2 -6 4 5 -4 5 8 -8 9 21 97 56 7 95 188 152 123 196 194 165 95 123 64 9 70 104 87 141 123 177 205 169 172 176 285 297 219 197 240 308 333 284 263 255 259 274 302 291 309 312
-6 -2 -6 -8 -21 -8 15 22 25 31 24 6 41 25 36 -92 85 290 237 93 -41 134 217 189 201 106 125 77 67 116 124 153 217 190 167 167 178 241 251 241 238 172 326 385 293 202 226 198 219 244 296 288 277 321
14 24 28 33 -20 -34 -46 -19 48 40 23 33 121 57 154 190 273 338 237 153 30 -2 66 213 153 137 124 95 152 163 186 212 189 132 133 164 209 212 192 268 255 118 261 247 188 265 271 394 396 340 354 329 330 341
-3 12 17 3 -13 -39 -29 21 34 89 94 157 172 175 147 109 214 234 44 19 -20 65 13 68 154 99 75 112 187 197 269 229 184 192 227 224 291 284 289 214 226 238 264 276 355 505 428 369 332 369 384 396 425 439
-7 -3 -29 -6 -17 -27 53 49 55 59 65 77 106 106 140 135 96 33 15 69 67 60 -2 51 33 66 87 138 161 262 226 274 255 228 312 292 273 294 218 131 178 255 305 327 344 286 364 441 451 430 418 430 488 461
-23 -11 -22 -21 -2 41 39 35 31 40 51 85 64 64 194 133 69 35 67 74 140 83 26 -7 -59 -69 50 88 295 316 319 341 320 231 298 336 361 384 350 175 148 214 236 308 342 351 380 445 413 414 440 439 457 397
-24 -48 -23 -38 -16 1 9 17 33 47 39 18 65 71 46 42 12 23 164 171 71 50 94 53 50 36 83 148 133 300 367 348 292 320 280 233 292 131 120 145 189 216 266 357 452 403 409 419 394 386 390 369 367 367
-21 -56 -54 -37 -22 -24 -24 -28 -25 -22 -33 17 -18 58 65 6 78 105 159 118 83 -69 -67 7 -3 87 217 231 252 198 309 226 80 98 118 142 167 131 143 209 189 175 224 268 303 314 306 332 344 386 410 411 389 355
53 -40 -152 -163 -103 -92 -70 -28 6 -18 -79 4 86 47 146 119 54 34 -2 38 45 70 85 56 79 129 102 153 90 130 106 115 87 113 138 114 167 224 280 330 279 327 326 295 261 253 280 312 339 377 386 396 380 363
48 45 -47 -111 -157 -110 -177 -147 -197 -56 49 62 28 95 39 53 12 -3 23 92 95 65 59 96 127 120 115 111 134 132 171 168 116 140 126 117 146 273 324 391 421 353 343 325 335 349 351 348 352 351 370 371 376 355
-26 -41 -81 -84 -90 -144 -123 -119 57 79 32 43 37 55 68 70 75 49 38 48 55 74 142 166 181 139 143 165 146 168 168 171 184 162 153 135 185 308 317 311 338 313 310 307 298 310 351 384 361 354 354 292 273 234
177 21 -75 72 -46 -54 -85 41 45 97 85 84 75 61 71 65 89 100 116 94 138 128 127 126 125 107 177 163 176 156 161 169 156 154 156 166 218 217 235 273 297 292 284 293 297 339 334 323 332 326 257 219 210 204
162 276 219 162 41 5 83 82 52 46 39 41 47 78 91 87 130 123 138 123 136 125 141 131 95 105 154 149 138 189 155 132 122 114 115 196 212 221 227 230 261 266 285 286 279 288 288 264 254 231 205 185 173 159
182 160 299 173 75 94 57 82 57 43 39 55 81 96 73 84 114 122 110 103 115 86 117 123 126 113 82 105 147 182 170 145 120 151 150 164 172 185 266 310 304 288 276 273 283 267 239 228 227 221 202 150 148 159
118 109 119 25 -33 107 135 95 68 68 113 123 101 142 145 150 139 121 125 133 69 69 94 101 110 155 158 139 146 145 149 179 205 220 207 212 252 274 267 265 230 215 216 207 206 217 200 189 179 167 164 167 172 152
75 122 131 106 37 54 76 106 123 143 176 171 168 168 142 173 235 177 182 193 187 171 151 156 146 176 196 208 198 185 172 158 179 216 272 252 221 192 169 165 166 186 211 215 203 210 209 190 191 193 197 184 182 169
12 139 209 186 50 31 46 83 105 116 163 125 103 178 162 183 200 204 241 250 197 151 184 209 277 300 283 261 207 149 144 119 131 204 204 194 197 214 196 182 196 224 243 243 247 240 256 294 283 255 224 201 187 174
-2 82 77 77 94 89 40 48 67 83 97 113 53 84 111 180 294 315 334 357 400 346 323 311 298 231 184 187 206 166 172 149 154 129 111 162 178 208 218 231 234 242 259 269 300 318 316 285 254 238 222 208 191 184
7 7 21 78 4 -26 -35 12 -1 22 40 58 82 59 112 146 192 243 267 375 363 374 308 255 203 153 185 218 189 192 170 219 238 250 245 209 221 239 243 216 219 252 262 247 235 241 233 212 193 187 187 187 176 181
14 10 8 8 -12 -24 -25 63 53 57 36 57 73 80 85 83 70 33 107 223 204 213 161 121 127 138 152 196 228 261 233 215 234 217 202 201 210 211 228 244 221 215 217 221 197 190 184 171 173 178 176 171 160 158
15 20 19 7 18 5 15 70 71 70 81 99 103 111 105 79 74 106 158 200 223 208 192 182 161 146 166 227 240 233 196 135 150 188 155 138 168 196 198 215 230 232 201 179 183 179 180 181 177 170 164 159 159 150
39 35 45 42 32 50 72 89 122 113 140 154 152 138 114 90 105 135 133 159 153 165 164 117 111 121 128 139 152 166 172 124 109 148 193 132 109 128 161 166 179 186 154 150 158 149 145 140 141 140 143 146 174 184
56 57 60 45 53 84 77 103 112 134 133 134 129 99 93 105 124 132 105 105 96 100 105 96 78 73 99 99 95 107 92 65 78 142 172 157 146 118 118 122 116 124 106 82 92 108 117 117 127 148 139 122 123 135
76 78 61 5 8 15 40 39 32 57 68 66 46 47 51 83 75 42 26 35 19 36 42 46 41 45 44 49 51 65 70 83 76 57 76 132 141 132 111 112 117 88 75 84 86 82 88 90 92 97 102 111 117 120
40 20 58 13 29 19 20 24 31 33 20 14 23 47 34 32 43 39 45 36 36 43 49 53 55 49 60 75 69 63 69 51 54 45 50 81 102 118 130 109 117 135 102 84 78 65 65 72 81 87 98 104 110 121
2 -20 4 43 33 43 56 51 47 42 28 32 49 49 50 64 82 88 102 92 101 93 87 68 69 45 63 88 124 128 125 94 79 98 93 84 89 79 82 74 81 88 92 99 107 107 89 97 96 82 82 90 99 105
12 1 30 40 47 50 43 34 31 41 69 59 60 97 185 167 161 120 114 113 99 70 53 60 62 67 57 58 59 78 77 66 50 24 36 41 30 39 49 61 72 77 88 99 100 106 132 137 133 134 132 126 122 124
-22 5 23 22 19 13 30 11 59 66 48 83 95 88 75 70 99 101 94 68 62 68 84 84 76 65 70 65 47 51 53 49 44 40 37 42 53 57 62 68 69 75 85 91 95 101 103 112 124 131 143 137 117 109
-1 10 19 19 9 28 9 39 47 36 21 38 40 47 52 62 61 42 42 43 67 72 50 43 51 43 36 18 11 17 29 27 41 45 53 68 63 60 66 72 84 97 107 118 128 129 131 131 129 129 120 115 106 89
12 29 42 39 32 38 44 80 76 59 53 45 42 44 42 48 46 27 28 28 27 26 30 20 13 32 44 42 39 37 43 47 49 63 78 78 74 70 78 87 99 111 122 124 121 130 139 137 126 108 91 77 66 58